Probability
0 0 0 0 0 0 0 0 0 0 0 0 0 0 0 0 0 0 0 0 0 0 0 0 0 0 0 0 0 0 0 0 0 0 0 0 0 0
0 0 0 0 0 0 0 0 0 0 0 0 0 0 0 0 0 0 0 0 0 0 0 0 0 0 0 0 0 0 0 0 0 0 0 0 0 0
0 0 0 0 0 0 0 0 0 0 0 0 0 0 0 0 0 0 0 0 0 0 0 0 0 0 0 0 0 0 0 0 0 0 0 0 0 0
0 0 0 0 0 0 0 0 0 0 0 0 0 0 0 0 0 0 0 0 0 0 0 0 0 0 0 0 0 0 0 0 0 0 0 0 0 0
0 0 0 0 0 0 0 0 0 0 0 0 0 0 0 0 0 0 0 1 0 0 0 0 0 0 0 0 0 0 0 0 0 0 0 0 0 0
0 0 0 0 0 0 0 0 0 0 0 1 1 0 0 0 0 0 0 0 0 0 0 0 0 0 0 0 0 0 0 0 0 0 0 0 0 0
0 0 0 0 0 0 0 0 0 1 1 2 1 1 1 1 1 0 0 0 0 1 1 1 1 1 2 1 0 0 0 0 0 0 0 0 0 0
0 0 0 0 0 0 0 0 0 1 2 2 1 1 1 2 2 1 1 1 1 2 2 2 2 2 2 1 0 0 0 0 0 0 0 0 0 0
0 0 0 0 0 0 0 0 0 1 1 1 0 1 2 4 4 3 2 3 3 4 4 3 2 2 1 1 0 0 0 0 0 0 0 0 0 0
0 0 1 0 0 0 0 0 1 2 1 0 0 1 2 4 5 4 3 3 4 4 3 2 1 1 0 0 0 0 0 0 0 0 0 0 0 0
0 0 0 0 0 0 0 1 3 4 4 3 2 1 1 2 2 2 1 2 3 2 2 2 1 0 0 0 0 0 0 0 0 0 0 0 0 0
0 0 0 0 0 0 0 2 5 7 8 8 6 4 4 3 2 1 1 1 1 1 2 2 1 1 1 0 0 0 0 0 0 0 0 0 0 0
1 0 0 0 0 0 0 1 3 5 7 9 9 8 8 7 5 4 5 5 4 2 3 3 3 2 2 1 1 1 1 1 1 1 0 0 0 0
1 0 0 0 0 0 0 0 1 1 3 7 8 8 7 6 7 8 10 13 11 7 5 4 4 4 4 3 2 2 3 3 3 3 1 1 2 2
1 0 0 0 0 0 0 0 0 0 2 6 7 6 5 5 7 9 11 15 14 9 7 7 7 7 7 6 4 4 4 5 5 5 4 4 5 5
1 2 2 2 2 2 2 2 2 2 4 5 6 6 6 7 8 8 8 9 8 6 6 8 10 11 10 8 6 5 4 5 5 7 9 8 6 5
2 3 5 5 4 4 4 4 4 4 3 3 4 5 5 6 8 8 7 5 3 2 3 5 8 10 9 6 5 5 4 4 6 9 11 8 5 4
1 2 3 4 4 4 4 4 3 3 3 3 3 3 4 5 8 9 7 4 2 1 0 1 3 5 5 3 3 3 3 2 4 8 8 5 4 4
0 0 1 1 2 3 4 4 3 3 3 3 2 3 3 3 5 6 5 4 2 1 0 0 0 1 1 1 1 1 1 0 2 3 4 3 3 3
0 0 0 0 1 3 5 5 5 4 4 4 4 3 2 1 1 2 3 4 4 2 1 1 1 1 0 0 0 0 0 0 0 0 1 2 3 3
0 0 1 1 1 2 4 5 5 4 5 5 5 4 2 1 0 1 3 4 4 4 4 4 4 2 1 0 0 0 0 0 0 0 1 1 2 2
1 1 1 1 1 1 2 3 3 4 5 5 4 3 2 1 0 1 3 4 5 5 5 5 5 4 1 0 0 0 0 0 0 1 1 1 0 1
2 2 1 1 0 1 2 2 2 3 5 5 2 1 1 1 0 1 2 4 4 4 4 4 4 3 1 0 0 0 0 0 1 2 2 1 0 0
Wind_Speed
4 4 2 2 1 1 2 3 4 4 3 4 3 2 2 1 1 4 3 4 1 2 3 4 4 5 5 6 6 7 7 8 8 9 10 11 12 14
1 1 1 2 1 1 1 2 3 4 3 1 1 1 2 4 2 4 5 4 7 5 4 5 5 6 6 6 6 7 8 8 8 9 10 10 11 12
4 4 3 1 2 2 2 2 2 3 3 2 1 1 2 6 4 5 6 7 5 9 6 6 6 7 7 7 7 8 8 9 9 10 10 10 11 11
5 5 5 4 3 3 2 2 2 2 4 3 3 3 3 5 5 7 7 6 7 6 9 8 9 9 9 9 9 9 10 10 10 10 11 11 11 12
6 6 5 5 5 3 3 3 3 3 3 4 4 3 4 4 5 7 7 5 9 6 10 13 12 11 11 11 11 11 11 11 11 11 11 11 12 12
6 6 6 6 6 5 4 4 4 4 4 5 5 4 4 4 5 6 6 5 6 7 6 6 10 14 15 15 14 13 13 12 12 12 12 12 12 13
7 7 7 4 2 4 5 4 5 5 5 5 5 5 4 4 5 6 6 7 6 6 7 7 7 8 9 14 17 15 14 13 13 13 13 13 13 13
8 8 7 8 8 8 8 7 7 8 7 7 6 6 6 6 6 7 8 8 8 5 7 8 8 9 8 9 5 9 12 13 13 13 14 14 14 14
8 8 8 7 8 9 10 12 12 12 11 10 10 9 8 7 7 10 8 9 10 9 9 11 9 10 9 8 7 10 12 13 14 14 14 14 15 15
9 9 9 8 8 7 8 9 9 10 11 12 11 11 10 8 8 9 10 11 12 10 9 11 10 10 10 9 8 12 14 15 15 15 15 15 15 15
10 10 10 10 6 6 9 9 10 9 10 12 12 11 10 9 8 9 10 11 11 10 7 9 10 11 10 10 9 11 15 16 16 16 16 16 15 14
9 10 10 11 6 9 10 10 10 9 9 8 10 12 13 13 13 12 11 11 11 11 8 8 10 11 11 10 9 8 9 13 17 18 17 17 16 12
9 9 8 13 11 10 11 10 9 8 9 10 10 10 9 9 10 10 10 10 11 12 10 9 11 11 12 12 11 10 10 10 10 11 15 18 18 15
8 7 4 9 11 11 10 9 7 7 9 10 9 9 8 8 8 8 8 10 11 13 13 13 12 12 13 14 13 11 11 10 11 11 11 11 15 18
7 5 2 5 7 10 13 12 10 9 9 9 9 9 8 8 8 8 10 10 13 14 13 13 13 12 12 14 14 13 13 12 11 11 11 11 11 10
10 8 8 9 10 10 8 10 10 9 9 9 9 8 8 8 9 9 10 10 10 11 11 12 13 14 13 14 13 14 13 13 12 12 11 11 11 12
6 7 8 8 8 8 8 8 7 7 8 8 8 9 9 9 9 9 9 10 11 11 11 9 10 10 13 13 14 14 13 13 13 11 10 12 12 12
5 7 7 8 8 7 7 7 7 7 7 7 8 9 9 9 10 9 9 10 10 11 11 10 10 10 11 12 12 14 13 13 12 11 11 13 13 12
6 7 7 7 7 7 7 7 7 6 6 8 9 9 9 9 9 9 9 10 10 10 11 10 10 11 13 14 12 9 11 12 12 13 12 12 13 12
7 7 7 6 6 6 7 7 7 6 6 7 8 9 9 9 9 10 10 11 11 11 11 11 10 10 11 13 14 13 12 13 12 13 13 12 13 13
6 6 6 5 6 6 6 6 7 7 7 7 8 9 8 9 9 10 10 11 11 12 12 11 9 10 10 10 12 13 12 10 11 12 13 13 13 13
5 5 4 5 5 5 5 6 6 6 7 8 8 8 8 9 10 12 11 11 10 11 12 11 10 9 10 11 13 15 14 13 11 14 16 16 13 13
4 4 4 5 5 5 5 6 7 7 7 7 8 9 9 9 10 10 11 11 10 11 11 11 11 10 10 11 12 13 16 15 12 11 11 13 18 21
Wind_Direction
166 172 215 143 231 256 268 278 280 263 205 165 218 165 265 302 359 289 296 116 207 282 288 293 289 285 282 278 276 274 273 272 270 268 264 259 256 255
169 130 230 194 167 216 236 260 282 290 292 124 206 277 334 298 168 285 284 196 215 228 252 273 279 279 277 278 279 275 272 272 272 270 266 264 260 259
181 179 198 245 228 214 214 234 250 271 272 260 224 196 261 287 296 290 277 272 243 195 216 247 261 264 266 271 274 275 273 272 271 270 268 266 263 260
192 193 200 193 206 250 239 240 247 285 271 280 273 245 234 260 273 281 281 280 289 188 200 231 244 251 257 262 266 267 267 269 269 268 267 267 266 263
198 201 205 204 213 218 235 241 235 228 254 264 265 276 266 265 277 269 272 272 280 248 207 218 228 240 249 254 256 258 260 262 264 265 265 264 264 264
205 209 212 211 215 218 223 235 251 258 249 259 266 261 259 257 265 276 281 268 277 292 289 264 231 226 237 243 246 248 251 254 257 259 260 260 260 261
209 214 218 223 258 256 264 245 241 251 255 256 262 266 270 284 283 292 295 295 282 276 284 284 271 259 246 231 232 237 241 247 254 257 257 258 257 257
215 219 217 209 217 229 256 270 278 266 273 279 275 279 283 284 290 292 294 293 294 296 292 287 285 282 276 272 239 210 228 243 251 255 257 256 255 253
220 223 233 214 206 227 219 225 240 245 254 270 279 284 287 287 292 287 287 292 296 302 296 288 286 282 280 275 222 225 235 243 249 252 255 256 255 253
226 227 234 238 225 235 243 239 242 233 227 233 253 266 271 281 276 275 282 277 270 263 258 274 284 285 286 284 247 227 234 241 246 250 251 252 253 253
230 228 230 234 212 208 245 254 258 259 239 232 244 259 275 280 277 278 276 277 281 284 275 275 285 288 287 283 273 231 228 235 242 247 249 250 251 253
221 226 227 237 214 197 236 251 258 263 273 257 235 243 250 249 233 241 262 273 281 286 289 285 286 289 289 285 286 281 255 239 234 239 242 244 245 251
227 223 217 196 215 215 233 252 262 277 276 271 265 258 251 249 242 233 240 260 277 283 291 291 288 287 285 287 285 283 281 281 268 253 238 236 234 234
243 245 226 173 199 216 227 243 253 262 263 264 265 265 267 267 266 265 260 259 263 272 282 286 282 282 284 285 286 286 283 279 278 277 276 257 231 228
250 266 273 194 213 227 231 233 235 241 251 257 263 266 271 277 280 274 265 257 256 259 263 263 265 270 273 277 283 285 286 283 279 277 274 271 270 256
242 241 227 228 237 256 249 222 229 243 253 260 266 272 277 274 268 270 273 275 275 275 266 261 260 266 270 274 278 281 281 282 281 278 278 276 272 267
225 236 239 237 234 237 240 242 243 238 239 251 262 268 270 271 272 272 271 275 278 282 284 279 267 261 265 271 276 277 280 281 279 279 275 274 271 268
217 241 247 250 253 255 255 253 249 250 254 260 263 268 272 274 275 275 274 274 276 280 283 288 289 285 277 267 255 272 279 283 284 281 279 276 275 272
224 243 248 251 255 260 261 262 265 265 264 264 266 268 271 273 275 276 276 276 276 279 282 285 286 284 285 286 284 265 283 289 289 284 278 274 276 278
237 244 248 252 257 260 263 265 266 268 263 266 269 272 273 274 276 276 276 278 282 285 284 283 282 283 285 290 294 291 272 274 281 283 283 281 278 275
238 245 252 257 260 260 262 265 267 270 272 275 275 276 277 277 277 277 278 280 278 280 282 283 286 285 283 282 279 280 283 268 263 273 283 284 283 280
257 257 260 263 263 265 267 270 274 275 275 275 280 282 280 279 278 278 278 279 279 280 285 286 286 280 276 275 279 286 290 290 276 253 250 257 270 277
256 262 261 258 258 260 266 270 272 275 277 280 281 282 283 282 281 281 282 282 283 283 284 285 285 281 279 278 280 284 288 291 290 288 275 253 242 249